Regional Weather Roundup
Issued by NWS

Home | Current Version | Previous Version | Graphics & Text | Print | Product List | Glossary On
Versions: 1 2 3 4 5 6 7 8 9 10 11 12 13 14 15 16 17 18 19 20 21 22 23 24 25 26 27 28 29 30 31 32 33 34 35 36 37 38 39 40 41 42 43 44 45 46 47 48 49 50
000
ASUS43 KTOP 300859
RWRKS

WEATHER ROUNDUP FOR KANSAS
NATIONAL WEATHER SERVICE GOODLAND KS
400 AM CDT SAT AUG 30 2014

NOTE:  "FAIR" INDICATES FEW OR NO CLOUDS BELOW 12,000 FEET WITH NO
SIGNIFICANT WEATHER AND/OR OBSTRUCTIONS TO VISIBILITY.

KSZ001>006-013>018-027>032-041>047-301000-
NORTHWEST KANSAS

CITY           SKY/WX    TMP DP  RH WIND       PRES   REMARKS
GOODLAND       PTCLDY    57  55  93 W6        30.05F
HAYS           CLEAR     61  54  77 NW5       29.97R
HILL CITY      CLEAR     62  59  90 CALM      29.99R
RUSSELL        CLEAR     64  57  78 NW5       29.95R
$$

KSZ061>065-074>080-084>089-301000-
SOUTHWEST KANSAS

CITY           SKY/WX    TMP DP  RH WIND       PRES   REMARKS
DODGE CITY     CLEAR     63  55  75 W8        30.02R
ELKHART          N/A     63  53  70 W3          N/A
GARDEN CITY    CLEAR     62  55  77 CALM      30.02F
GREAT BEND     CLEAR     63  55  77 W5        29.96S
LIBERAL        CLEAR     61  52  72 NW3       30.06R
$$

KSZ066>073-081>083-090>101-301000-
SOUTHEAST KANSAS

CITY           SKY/WX    TMP DP  RH WIND       PRES   REMARKS
CHANUTE        CLEAR     72  69  90 S9        29.91F
COFFEYVILLE    CLOUDY    72  70  93 S5        29.92S
HUTCHINSON     FOG       65  63  93 NW5       29.94R VSB 1/2
NEWTON         CLEAR     66  61  82 SW6       29.96R
PARSONS        CLEAR     71  68  90 S5        29.93S
WICHITA INTL   CLEAR     67  65  93 W6        29.92R
WICHITA JABRA  CLEAR     69  66  90 W6        29.92R
WINFIELD       CLEAR     70  67  90 CALM      29.93S
$$

KSZ007>012-019>026-033>040-048>060-102>105-301000-
NORTHEAST KANSAS

CITY           SKY/WX    TMP DP  RH WIND       PRES   REMARKS
CONCORDIA      CLEAR     65  64  97 W6        29.93R
EMPORIA        CLEAR     68  66  93 CALM      29.91R
LAWRENCE       CLEAR     70  65  84 W6        29.88R
MANHATTAN      CLEAR     67  65  93 CALM      29.90R
OLATHE IND     CLEAR     69  66  90 S7        29.90R
OLATHE EXE     CLEAR     69  66  90 S6        29.89R
SALINA         CLEAR     67  63  87 CALM      29.93R
TOPEKA BILLARD CLEAR     71  69  93 SW3       29.88S
TOPEKA FORBES  CLEAR     68  66  93 W5        29.89R
$$



USA.gov is the U.S. government's official web portal to all federal, state and local government web resources and services.